| time (UTC) | temp F | wind direction | speed knots | gust knots | rain 1hr in | rain 24hr in | rain mn in | humidity % | barometer mb |
| 20260510094954 | 70 | 85 | 0.0 | 0.0 | 0.00 | 0.00 | 0.00 | 85 | 1008.8 |
| 20260510094719 | 70 | 85 | 0.0 | 0.0 | 0.00 | 0.00 | 0.00 | 85 | 1008.8 |
| 20260510093954 | 70 | 85 | 0.0 | 2.6 | 0.00 | 0.00 | 0.00 | 85 | 1008.8 |
| 20260510093450 | 70 | 85 | 0.0 | 2.6 | 0.00 | 0.00 | 0.00 | 85 | 1008.8 |
| 20260510092950 | 70 | 85 | 0.9 | 2.6 | 0.00 | 0.00 | 0.00 | 85 | 1008.8 |
| 20260510092451 | 71 | 85 | 1.7 | 3.5 | 0.00 | 0.00 | 0.00 | 85 | 1008.9 |
| 20260510091950 | 71 | 85 | 0.9 | 3.5 | 0.00 | 0.00 | 0.00 | 85 | 1008.9 |
| 20260510091451 | 71 | 141 | 0.9 | 3.5 | 0.00 | 0.00 | 0.00 | 85 | 1008.9 |
| 20260510090945 | 71 | 141 | 1.7 | 3.5 | 0.00 | 0.00 | 0.00 | 85 | 1008.9 |
| 20260510090439 | 71 | 146 | 1.7 | 3.5 | 0.00 | 0.00 | 0.00 | 85 | 1008.9 |
| 20260510085934 | 71 | 128 | 2.6 | 4.3 | 0.00 | 0.00 | 0.00 | 84 | 1008.9 |
| 20260510085648 | 71 | 132 | 2.6 | 5.2 | 0.00 | 0.00 | 0.00 | 84 | 1008.9 |
| 20260510084914 | 71 | 130 | 2.6 | 6.1 | 0.00 | 0.00 | 0.00 | 84 | 1008.9 |
| 20260510084359 | 71 | 147 | 2.6 | 6.1 | 0.00 | 0.00 | 0.00 | 84 | 1009.1 |
| 20260510083847 | 71 | 136 | 2.6 | 5.2 | 0.00 | 0.00 | 0.00 | 84 | 1009.1 |
| 20260510083331 | 71 | 138 | 2.6 | 5.2 | 0.00 | 0.00 | 0.00 | 84 | 1009.1 |
| 20260510082820 | 71 | 141 | 2.6 | 5.2 | 0.00 | 0.00 | 0.00 | 84 | 1009.2 |
| 20260510082307 | 71 | 134 | 3.5 | 5.2 | 0.00 | 0.00 | 0.00 | 84 | 1009.2 |
| 20260510081751 | 71 | 124 | 3.5 | 4.3 | 0.00 | 0.00 | 0.00 | 84 | 1009.2 |
| 20260510081242 | 71 | 119 | 2.6 | 4.3 | 0.00 | 0.00 | 0.00 | 84 | 1009.2 |
| 20260510080743 | 71 | 127 | 2.6 | 4.3 | 0.00 | 0.00 | 0.00 | 84 | 1009.2 |
| 20260510080243 | 71 | 132 | 2.6 | 4.3 | 0.00 | 0.00 | 0.00 | 84 | 1009.2 |
| 20260510075743 | 71 | 122 | 2.6 | 4.3 | 0.00 | 0.00 | 0.00 | 84 | 1009.1 |
| 20260510075244 | 71 | 117 | 2.6 | 4.3 | 0.00 | 0.00 | 0.00 | 84 | 1009.1 |
| 20260510074744 | 71 | 132 | 1.7 | 4.3 | 0.00 | 0.00 | 0.00 | 83 | 1009.1 |
| 20260510074505 | 71 | 136 | 2.6 | 4.3 | 0.00 | 0.00 | 0.00 | 83 | 1009.1 |
| 20260510073737 | 71 | 124 | 2.6 | 4.3 | 0.00 | 0.00 | 0.00 | 83 | 1009.1 |
| 20260510073227 | 71 | 130 | 2.6 | 4.3 | 0.00 | 0.00 | 0.00 | 83 | 1009.1 |
| 20260510072721 | 71 | 128 | 2.6 | 3.5 | 0.00 | 0.00 | 0.00 | 83 | 1009.1 |
| 20260510072213 | 71 | 130 | 2.6 | 4.3 | 0.00 | 0.00 | 0.00 | 83 | 1009.1 |
| 20260510071707 | 71 | 134 | 2.6 | 4.3 | 0.00 | 0.00 | 0.00 | 83 | 1009.1 |
| 20260510071152 | 71 | 139 | 2.6 | 4.3 | 0.00 | 0.00 | 0.00 | 83 | 1009.1 |
| 20260510070650 | 71 | 145 | 2.6 | 4.3 | 0.00 | 0.00 | 0.00 | 83 | 1009.1 |
| 20260510070151 | 72 | 151 | 3.5 | 4.3 | 0.00 | 0.00 | 0.00 | 83 | 1009.1 |
| 20260510065649 | 72 | 148 | 3.5 | 6.1 | 0.00 | 0.00 | 0.00 | 83 | 1009.1 |
| 20260510065146 | 72 | 159 | 3.5 | 6.1 | 0.00 | 0.00 | 0.00 | 83 | 1009.1 |
| 20260510064643 | 72 | 157 | 3.5 | 6.1 | 0.00 | 0.00 | 0.00 | 83 | 1009.1 |
| 20260510064143 | 73 | 144 | 3.5 | 6.1 | 0.00 | 0.00 | 0.00 | 82 | 1009.4 |
| 20260510063642 | 73 | 128 | 4.3 | 6.1 | 0.00 | 0.00 | 0.00 | 82 | 1009.4 |
| 20260510063143 | 73 | 115 | 4.3 | 6.1 | 0.00 | 0.00 | 0.00 | 82 | 1009.4 |
| 20260510062643 | 73 | 110 | 4.3 | 6.1 | 0.00 | 0.00 | 0.00 | 82 | 1009.7 |
| 20260510062142 | 73 | 127 | 4.3 | 6.1 | 0.00 | 0.00 | 0.00 | 82 | 1009.7 |
| 20260510061643 | 73 | 90 | 3.5 | 6.1 | 0.00 | 0.00 | 0.00 | 82 | 1009.7 |
| 20260510061143 | 73 | 114 | 4.3 | 6.1 | 0.00 | 0.00 | 0.00 | 82 | 1009.8 |
| 20260510060629 | 73 | 85 | 4.3 | 7.0 | 0.00 | 0.00 | 0.00 | 82 | 1009.8 |
| 20260510060123 | 73 | 90 | 3.5 | 7.8 | 0.00 | 0.00 | 0.00 | 81 | 1009.8 |
| 20260510055613 | 73 | 78 | 3.5 | 7.8 | 0.00 | 0.00 | 0.00 | 81 | 1009.8 |
| 20260510055326 | 73 | 85 | 4.3 | 7.8 | 0.00 | 0.00 | 0.00 | 81 | 1009.8 |
| 20260510054101 | 73 | 95 | 5.2 | 7.8 | 0.00 | 0.00 | 0.00 | 80 | 1009.8 |
| 20260510053558 | 72 | 79 | 4.3 | 7.8 | 0.00 | 0.00 | 0.00 | 80 | 1009.8 |
| 20260510053321 | 72 | 78 | 3.5 | 6.1 | 0.00 | 0.00 | 0.00 | 80 | 1009.8 |
| 20260510052556 | 72 | 74 | 3.5 | 6.1 | 0.00 | 0.00 | 0.00 | 80 | 1009.7 |
| 20260510052055 | 73 | 60 | 3.5 | 6.1 | 0.00 | 0.00 | 0.00 | 79 | 1009.7 |
| 20260510051555 | 73 | 74 | 3.5 | 6.1 | 0.00 | 0.00 | 0.00 | 79 | 1009.7 |
| 20260510051055 | 73 | 73 | 2.6 | 5.2 | 0.00 | 0.00 | 0.00 | 79 | 1009.3 |
| 20260510050557 | 73 | 85 | 2.6 | 5.2 | 0.00 | 0.00 | 0.00 | 79 | 1009.3 |
| 20260510050055 | 73 | 101 | 3.5 | 5.2 | 0.00 | 0.00 | 0.00 | 79 | 1009.3 |
| 20260510045557 | 73 | 95 | 2.6 | 5.2 | 0.00 | 0.00 | 0.00 | 79 | 1009.2 |
| 20260510045054 | 73 | 118 | 2.6 | 5.2 | 0.00 | 0.00 | 0.00 | 78 | 1009.2 |
| 20260510044554 | 73 | 124 | 3.5 | 5.2 | 0.00 | 0.00 | 0.00 | 78 | 1009.2 |
| 20260510044053 | 73 | 117 | 4.3 | 7.8 | 0.00 | 0.00 | 0.00 | 78 | 1009.3 |
| 20260510043553 | 74 | 114 | 4.3 | 7.8 | 0.00 | 0.00 | 0.00 | 78 | 1009.3 |
| 20260510043049 | 74 | 111 | 4.3 | 7.8 | 0.00 | 0.00 | 0.00 | 78 | 1009.3 |
| 20260510042550 | 74 | 103 | 4.3 | 7.8 | 0.00 | 0.00 | 0.00 | 77 | 1009.3 |
| 20260510042048 | 74 | 90 | 4.3 | 7.0 | 0.00 | 0.00 | 0.00 | 77 | 1009.3 |
| 20260510041815 | 74 | 101 | 3.5 | 7.0 | 0.00 | 0.00 | 0.00 | 77 | 1009.3 |
| 20260510041117 | 74 | 66 | 2.6 | 6.1 | 0.00 | 0.00 | 0.00 | 77 | 1008.8 |
| 20260510040548 | 74 | 100 | 2.6 | 7.8 | 0.00 | 0.00 | 0.00 | 76 | 1008.8 |
| 20260510040038 | 74 | 110 | 3.5 | 7.8 | 0.00 | 0.00 | 0.00 | 76 | 1008.8 |
| 20260510035532 | 74 | 128 | 4.3 | 7.8 | 0.00 | 0.00 | 0.00 | 76 | 1008.1 |
| 20260510035022 | 74 | 160 | 4.3 | 7.8 | 0.00 | 0.00 | 0.00 | 76 | 1008.1 |
| 20260510034511 | 74 | 90 | 3.5 | 7.8 | 0.00 | 0.00 | 0.00 | 76 | 1008.1 |
| 20260510034002 | 74 | 165 | 3.5 | 7.0 | 0.00 | 0.00 | 0.00 | 75 | 1008.2 |
| 20260510033455 | 74 | 90 | 3.5 | 7.8 | 0.00 | 0.00 | 0.00 | 75 | 1008.2 |
| 20260510032941 | 75 | 166 | 3.5 | 7.8 | 0.00 | 0.00 | 0.00 | 75 | 1007.9 |
| 20260510032436 | 75 | 171 | 5.2 | 7.8 | 0.00 | 0.00 | 0.00 | 74 | 1007.9 |
| 20260510031925 | 75 | 168 | 6.1 | 7.8 | 0.00 | 0.00 | 0.00 | 74 | 1007.9 |
| 20260510031415 | 75 | 90 | 6.1 | 7.8 | 0.00 | 0.00 | 0.00 | 74 | 1007.9 |
| 20260510031138 | 76 | 164 | 6.1 | 7.8 | 0.00 | 0.00 | 0.00 | 74 | 1007.9 |
| 20260510030352 | 76 | 156 | 5.2 | 7.8 | 0.00 | 0.00 | 0.00 | 73 | 1007.9 |
| 20260510025842 | 76 | 154 | 4.3 | 7.8 | 0.00 | 0.00 | 0.00 | 73 | 1007.7 |
| 20260510025336 | 76 | 134 | 3.5 | 6.1 | 0.00 | 0.00 | 0.00 | 73 | 1007.7 |
| 20260510024825 | 77 | 141 | 3.5 | 6.1 | 0.00 | 0.00 | 0.00 | 72 | 1007.7 |
| 20260510024316 | 77 | 126 | 3.5 | 5.2 | 0.00 | 0.00 | 0.00 | 72 | 1007.7 |
| 20260510023303 | 78 | 122 | 4.3 | 6.1 | 0.00 | 0.00 | 0.00 | 72 | 1007.7 |
| 20260510022754 | 78 | 143 | 4.3 | 6.1 | 0.00 | 0.00 | 0.00 | 72 | 1007.5 |
| 20260510022240 | 78 | 157 | 2.6 | 6.1 | 0.00 | 0.00 | 0.00 | 71 | 1007.5 |
| 20260510021729 | 79 | 125 | 2.6 | 4.3 | 0.00 | 0.00 | 0.00 | 71 | 1007.5 |
| 20260510021218 | 79 | 103 | 2.6 | 4.3 | 0.00 | 0.00 | 0.00 | 71 | 1007.3 |
| 20260510020708 | 80 | 90 | 2.6 | 4.3 | 0.00 | 0.00 | 0.00 | 71 | 1007.3 |
| 20260510015643 | 80 | 95 | 2.6 | 4.3 | 0.00 | 0.00 | 0.00 | 70 | 1006.8 |
| 20260510015130 | 80 | 90 | 2.6 | 4.3 | 0.00 | 0.00 | 0.00 | 70 | 1006.8 |
| 20260510014618 | 80 | 162 | 3.5 | 13.0 | 0.00 | 0.00 | 0.00 | 70 | 1006.8 |
| 20260510014119 | 80 | 163 | 5.2 | 13.0 | 0.00 | 0.00 | 0.00 | 70 | 1006.1 |
| 20260510013615 | 81 | 165 | 6.1 | 13.0 | 0.00 | 0.00 | 0.00 | 69 | 1006.1 |
| 20260510013119 | 81 | 90 | 7.0 | 13.0 | 0.00 | 0.00 | 0.00 | 69 | 1006.1 |
| 20260510012617 | 81 | 90 | 7.0 | 12.2 | 0.00 | 0.00 | 0.00 | 69 | 1005.8 |
| 20260510012119 | 82 | 168 | 7.8 | 12.2 | 0.00 | 0.00 | 0.00 | 68 | 1005.8 |
| 20260510011616 | 82 | 195 | 7.8 | 13.9 | 0.00 | 0.00 | 0.00 | 68 | 1005.8 |
| 20260510011120 | 83 | 90 | 7.8 | 13.9 | 0.00 | 0.00 | 0.00 | 68 | 1005.9 |
| 20260510010615 | 84 | 90 | 7.0 | 10.4 | 0.00 | 0.00 | 0.00 | 67 | 1005.9 |
| 20260510010118 | 84 | 151 | 7.0 | 10.4 | 0.00 | 0.00 | 0.00 | 67 | 1005.9 |
| 20260510005613 | 85 | 163 | 7.0 | 10.4 | 0.00 | 0.00 | 0.00 | 66 | 1006.1 |
| 20260510005114 | 85 | 160 | 7.0 | 10.4 | 0.00 | 0.00 | 0.00 | 66 | 1006.1 |
| 20260510004609 | 86 | 166 | 6.1 | 9.6 | 0.00 | 0.00 | 0.00 | 66 | 1006.1 |
| 20260510004111 | 86 | 162 | 5.2 | 8.7 | 0.00 | 0.00 | 0.00 | 65 | 1006.1 |
| 20260510003609 | 87 | 170 | 5.2 | 8.7 | 0.00 | 0.00 | 0.00 | 65 | 1006.1 |
| 20260510003112 | 87 | 163 | 5.2 | 8.7 | 0.00 | 0.00 | 0.00 | 65 | 1006.1 |
| 20260510002609 | 87 | 159 | 6.1 | 9.6 | 0.00 | 0.00 | 0.00 | 65 | 1006.1 |
| 20260510002111 | 87 | 168 | 6.1 | 10.4 | 0.00 | 0.00 | 0.00 | 64 | 1006.1 |
| 20260510001609 | 88 | 90 | 6.1 | 10.4 | 0.00 | 0.00 | 0.00 | 64 | 1006.1 |
| 20260510001059 | 88 | 161 | 7.0 | 11.3 | 0.00 | 0.00 | 0.00 | 64 | 1005.9 |
| 20260510000550 | 88 | 161 | 7.0 | 11.3 | 0.00 | 0.00 | 0.00 | 64 | 1005.9 |
| 20260510000044 | 88 | 168 | 7.8 | 11.3 | 0.00 | 0.00 | 0.00 | 64 | 1005.9 |
| 20260509235743 | 89 | 161 | 7.0 | 10.4 | 0.00 | 0.00 | 0.00 | 63 | 1006.0 |
| 20260509235019 | 89 | 155 | 7.0 | 12.2 | 0.00 | 0.00 | 0.00 | 63 | 1006.0 |
| 20260509234517 | 89 | 168 | 7.0 | 12.2 | 0.00 | 0.00 | 0.00 | 63 | 1006.0 |
| 20260509234017 | 90 | 156 | 7.0 | 11.3 | 0.00 | 0.00 | 0.00 | 63 | 1006.0 |
| 20260509233018 | 91 | 139 | 7.0 | 11.3 | 0.00 | 0.00 | 0.00 | 63 | 1006.0 |
| 20260509232517 | 91 | 155 | 7.0 | 11.3 | 0.00 | 0.00 | 0.00 | 63 | 1005.7 |
| 20260509232023 | 91 | 139 | 7.0 | 11.3 | 0.00 | 0.00 | 0.00 | 64 | 1005.7 |
| 20260509231519 | 92 | 165 | 6.1 | 11.3 | 0.00 | 0.00 | 0.00 | 64 | 1005.7 |
| 20260509231243 | 92 | 169 | 5.2 | 9.6 | 0.00 | 0.00 | 0.00 | 64 | 1005.6 |
| 20260509230519 | 92 | 164 | 3.5 | 9.6 | 0.00 | 0.00 | 0.00 | 64 | 1005.6 |
| 20260509230017 | 92 | 174 | 2.6 | 7.8 | 0.00 | 0.00 | 0.00 | 64 | 1005.6 |
| 20260509225511 | 92 | 151 | 3.5 | 7.8 | 0.00 | 0.00 | 0.00 | 64 | 1005.6 |
| 20260509225005 | 92 | 169 | 3.5 | 7.8 | 0.00 | 0.00 | 0.00 | 65 | 1005.6 |
| 20260509224714 | 92 | 90 | 2.6 | 7.8 | 0.00 | 0.00 | 0.00 | 65 | 1005.6 |
| 20260509223949 | 92 | 151 | 1.7 | 7.0 | 0.00 | 0.00 | 0.00 | 66 | 1005.6 |
| 20260509223450 | 92 | 136 | 2.6 | 6.1 | 0.00 | 0.00 | 0.00 | 66 | 1005.6 |
| 20260509222949 | 92 | 210 | 2.6 | 6.1 | 0.00 | 0.00 | 0.00 | 66 | 1005.7 |
| 20260509222718 | 92 | 148 | 1.7 | 4.3 | 0.00 | 0.00 | 0.00 | 67 | 1005.7 |
| 20260509221953 | 92 | 139 | 1.7 | 4.3 | 0.00 | 0.00 | 0.00 | 67 | 1005.7 |
| 20260509221454 | 92 | 140 | 1.7 | 4.3 | 0.00 | 0.00 | 0.00 | 67 | 1006.0 |
| 20260509220949 | 92 | 185 | 2.6 | 4.3 | 0.00 | 0.00 | 0.00 | 68 | 1006.0 |
| 20260509220451 | 92 | 206 | 2.6 | 4.3 | 0.00 | 0.00 | 0.00 | 68 | 1006.0 |
| 20260509215949 | 91 | 201 | 2.6 | 4.3 | 0.00 | 0.00 | 0.00 | 68 | 1006.1 |
| 20260509215454 | 91 | 206 | 1.7 | 2.6 | 0.00 | 0.00 | 0.00 | 69 | 1006.1 |
| 20260509214950 | 91 | 226 | 1.7 | 4.3 | 0.00 | 0.00 | 0.00 | 69 | 1006.1 |
| 20260509214713 | 91 | 230 | 2.6 | 4.3 | 0.00 | 0.00 | 0.00 | 69 | 1006.1 |
| 20260509213948 | 91 | 240 | 2.6 | 4.3 | 0.00 | 0.00 | 0.00 | 70 | 1006.1 |
| 20260509213447 | 91 | 210 | 2.6 | 4.3 | 0.00 | 0.00 | 0.00 | 70 | 1006.1 |
| 20260509212949 | 91 | 214 | 1.7 | 3.5 | 0.00 | 0.00 | 0.00 | 70 | 1006.4 |
| 20260509212448 | 91 | 220 | 0.9 | 2.6 | 0.00 | 0.00 | 0.00 | 71 | 1006.4 |
| 20260509212209 | 91 | 109 | 0.9 | 4.3 | 0.00 | 0.00 | 0.00 | 71 | 1006.4 |
| 20260509211448 | 91 | 181 | 0.9 | 4.3 | 0.00 | 0.00 | 0.00 | 72 | 1006.6 |
| 20260509210936 | 91 | 180 | 1.7 | 5.2 | 0.00 | 0.00 | 0.00 | 72 | 1006.6 |
| 20260509210423 | 90 | 210 | 3.5 | 5.2 | 0.00 | 0.00 | 0.00 | 73 | 1006.6 |
| 20260509205908 | 90 | 205 | 3.5 | 5.2 | 0.00 | 0.00 | 0.00 | 73 | 1006.6 |
| 20260509205356 | 90 | 206 | 4.3 | 7.0 | 0.00 | 0.00 | 0.00 | 74 | 1006.6 |
| 20260509204842 | 90 | 211 | 3.5 | 7.0 | 0.00 | 0.00 | 0.00 | 74 | 1006.6 |
| 20260509204334 | 90 | 166 | 2.6 | 5.2 | 0.00 | 0.00 | 0.00 | 75 | 1006.7 |
| 20260509203824 | 89 | 163 | 2.6 | 5.2 | 0.00 | 0.00 | 0.00 | 75 | 1006.7 |
| 20260509203314 | 89 | 209 | 3.5 | 5.2 | 0.00 | 0.00 | 0.00 | 76 | 1006.7 |
| 20260509202809 | 89 | 207 | 3.5 | 5.2 | 0.00 | 0.00 | 0.00 | 77 | 1006.9 |
| 20260509202306 | 89 | 213 | 3.5 | 5.2 | 0.00 | 0.00 | 0.00 | 77 | 1006.9 |
| 20260509201802 | 89 | 212 | 3.5 | 6.1 | 0.00 | 0.00 | 0.00 | 77 | 1006.9 |
| 20260509201237 | 88 | 216 | 3.5 | 6.1 | 0.00 | 0.00 | 0.00 | 78 | 1007.1 |
| 20260509200732 | 88 | 220 | 2.6 | 4.3 | 0.00 | 0.00 | 0.00 | 78 | 1007.1 |
| 20260509200456 | 88 | 216 | 2.6 | 5.2 | 0.00 | 0.00 | 0.00 | 78 | 1007.1 |
| 20260509195712 | 88 | 250 | 2.6 | 5.2 | 0.00 | 0.00 | 0.00 | 79 | 1007.2 |
| 20260509195205 | 88 | 296 | 1.7 | 4.3 | 0.00 | 0.00 | 0.00 | 79 | 1007.2 |
| 20260509194656 | 88 | 90 | 0.9 | 3.5 | 0.00 | 0.00 | 0.00 | 80 | 1007.2 |
| 20260509194151 | 87 | 101 | 1.7 | 4.3 | 0.00 | 0.00 | 0.00 | 80 | 1007.4 |
| 20260509193640 | 87 | 178 | 1.7 | 4.3 | 0.00 | 0.00 | 0.00 | 81 | 1007.4 |
| 20260509193134 | 87 | 203 | 1.7 | 4.3 | 0.00 | 0.00 | 0.00 | 81 | 1007.4 |
| 20260509192627 | 86 | 205 | 1.7 | 4.3 | 0.00 | 0.00 | 0.00 | 81 | 1007.6 |
| 20260509192128 | 85 | 39 | 1.7 | 4.3 | 0.00 | 0.00 | 0.00 | 82 | 1007.6 |
| 20260509191857 | 85 | 39 | 2.6 | 4.3 | 0.00 | 0.00 | 0.00 | 82 | 1007.6 |
| 20260509191127 | 85 | 49 | 2.6 | 6.1 | 0.00 | 0.00 | 0.00 | 82 | 1007.7 |
| 20260509190628 | 84 | 26 | 2.6 | 6.1 | 0.00 | 0.00 | 0.00 | 82 | 1007.7 |
| 20260509190128 | 84 | 24 | 2.6 | 6.1 | 0.00 | 0.00 | 0.00 | 83 | 1007.7 |
| 20260509185625 | 84 | 19 | 3.5 | 6.1 | 0.00 | 0.00 | 0.00 | 83 | 1007.7 |
| 20260509185125 | 84 | 343 | 3.5 | 7.0 | 0.00 | 0.00 | 0.00 | 83 | 1007.7 |
| 20260509184852 | 84 | 348 | 3.5 | 7.0 | 0.00 | 0.00 | 0.00 | 84 | 1007.7 |
| 20260509184124 | 84 | 349 | 2.6 | 6.1 | 0.00 | 0.00 | 0.00 | 84 | 1007.8 |
| 20260509183624 | 83 | 29 | 2.6 | 5.2 | 0.00 | 0.00 | 0.00 | 84 | 1007.8 |
| 20260509183124 | 83 | 28 | 3.5 | 5.2 | 0.00 | 0.00 | 0.00 | 84 | 1007.8 |
| 20260509182624 | 83 | 36 | 3.5 | 6.1 | 0.00 | 0.00 | 0.00 | 85 | 1008.0 |
| 20260509182122 | 83 | 9 | 3.5 | 6.1 | 0.00 | 0.00 | 0.00 | 85 | 1008.0 |
| 20260509181605 | 83 | 311 | 3.5 | 6.1 | 0.00 | 0.00 | 0.00 | 85 | 1008.0 |
| 20260509181057 | 82 | 354 | 3.5 | 6.1 | 0.00 | 0.00 | 0.00 | 85 | 1008.2 |
| 20260509180551 | 82 | 8 | 3.5 | 6.1 | 0.00 | 0.00 | 0.00 | 86 | 1008.2 |
| 20260509180058 | 82 | 5 | 3.5 | 6.1 | 0.00 | 0.00 | 0.00 | 86 | 1008.2 |
| 20260509175536 | 81 | 342 | 3.5 | 6.1 | 0.00 | 0.00 | 0.00 | 86 | 1008.4 |
| 20260509175306 | 81 | 0 | 3.5 | 6.1 | 0.00 | 0.00 | 0.00 | 86 | 1008.4 |
| 20260509174538 | 81 | 39 | 2.6 | 5.2 | 0.00 | 0.00 | 0.00 | 87 | 1008.4 |
| 20260509174255 | 80 | 34 | 1.7 | 4.3 | 0.00 | 0.00 | 0.00 | 87 | 1008.7 |
| 20260509173533 | 80 | 344 | 1.7 | 4.3 | 0.00 | 0.00 | 0.00 | 87 | 1008.7 |
| 20260509173037 | 80 | 335 | 2.6 | 7.0 | 0.00 | 0.00 | 0.00 | 87 | 1008.7 |
| 20260509172529 | 80 | 7 | 3.5 | 7.0 | 0.00 | 0.00 | 0.00 | 88 | 1008.7 |
| 20260509172301 | 80 | 21 | 4.3 | 7.0 | 0.00 | 0.00 | 0.00 | 88 | 1008.7 |
| 20260509171753 | 80 | 346 | 5.2 | 7.0 | 0.00 | 0.00 | 0.00 | 88 | 1008.7 |
| 20260509171034 | 79 | 340 | 5.2 | 6.1 | 0.00 | 0.00 | 0.00 | 88 | 1008.7 |
| 20260509170236 | 79 | 340 | 4.3 | 6.1 | 0.00 | 0.00 | 0.00 | 89 | 1008.7 |
| 20260509165608 | 79 | 299 | 5.2 | 8.7 | 0.00 | 0.00 | 0.00 | 89 | 1008.3 |
| 20260509165108 | 78 | 332 | 5.2 | 8.7 | 0.00 | 0.00 | 0.00 | 89 | 1008.3 |
| 20260509164607 | 78 | 357 | 4.3 | 8.7 | 0.00 | 0.00 | 0.00 | 89 | 1008.3 |
| 20260509164108 | 78 | 13 | 5.2 | 8.7 | 0.00 | 0.00 | 0.00 | 89 | 1008.7 |
| 20260509163823 | 78 | 14 | 5.2 | 8.7 | 0.00 | 0.00 | 0.00 | 89 | 1008.7 |
| 20260509163107 | 77 | 9 | 4.3 | 7.0 | 0.00 | 0.00 | 0.00 | 89 | 1008.7 |
| 20260509162607 | 77 | 358 | 4.3 | 7.8 | 0.00 | 0.00 | 0.00 | 89 | 1008.7 |
| 20260509162053 | 77 | 29 | 4.3 | 7.8 | 0.00 | 0.00 | 0.00 | 90 | 1008.7 |
| 20260509161537 | 77 | 3 | 4.3 | 7.0 | 0.00 | 0.00 | 0.00 | 90 | 1008.7 |
| 20260509161029 | 76 | 6 | 3.5 | 7.0 | 0.00 | 0.00 | 0.00 | 90 | 1008.7 |
| 20260509160524 | 76 | 357 | 3.5 | 5.2 | 0.00 | 0.00 | 0.00 | 90 | 1008.7 |
| 20260509160227 | 76 | 340 | 1.7 | 5.2 | 0.00 | 0.00 | 0.00 | 90 | 1008.7 |
| 20260509155503 | 77 | 90 | 0.9 | 3.5 | 0.00 | 0.00 | 0.00 | 90 | 1008.7 |
| 20260509155222 | 77 | 43 | 0.9 | 2.6 | 0.00 | 0.00 | 0.00 | 90 | 1008.7 |
| 20260509154715 | 77 | 43 | 0.0 | 2.6 | 0.00 | 0.00 | 0.00 | 90 | 1009.0 |
| 20260509154207 | 77 | 118 | 0.0 | 0.0 | 0.00 | 0.00 | 0.00 | 90 | 1009.0 |
| 20260509153423 | 77 | 118 | 0.0 | 5.2 | 0.00 | 0.00 | 0.00 | 90 | 1009.0 |
| 20260509153154 | 76 | 118 | 1.7 | 5.2 | 0.00 | 0.00 | 0.00 | 90 | 1008.3 |
| 20260509152412 | 76 | 118 | 2.6 | 5.2 | 0.00 | 0.00 | 0.00 | 90 | 1008.3 |
| 20260509151905 | 76 | 123 | 2.6 | 5.2 | 0.00 | 0.00 | 0.00 | 90 | 1008.3 |
| 20260509151403 | 76 | 141 | 2.6 | 5.2 | 0.00 | 0.00 | 0.00 | 90 | 1008.3 |
| 20260509151122 | 76 | 119 | 1.7 | 4.3 | 0.00 | 0.00 | 0.00 | 90 | 1008.3 |
| 20260509150402 | 76 | 144 | 1.7 | 4.3 | 0.00 | 0.00 | 0.00 | 90 | 1008.3 |
| 20260509150127 | 76 | 145 | 1.7 | 4.3 | 0.00 | 0.00 | 0.00 | 90 | 1008.3 |
| 20260509145618 | 76 | 146 | 2.6 | 6.1 | 0.00 | 0.00 | 0.00 | 90 | 1008.3 |
| 20260509144858 | 76 | 153 | 2.6 | 6.1 | 0.00 | 0.00 | 0.00 | 90 | 1008.3 |
| 20260509144357 | 76 | 172 | 2.6 | 6.1 | 0.00 | 0.00 | 0.00 | 90 | 1008.7 |
| 20260509144115 | 76 | 189 | 3.5 | 6.1 | 0.00 | 0.00 | 0.00 | 90 | 1008.7 |
| 20260509143357 | 76 | 209 | 3.5 | 6.1 | 0.00 | 0.00 | 0.00 | 90 | 1008.7 |
| 20260509142856 | 76 | 192 | 3.5 | 6.1 | 0.00 | 0.00 | 0.00 | 90 | 1008.3 |
| 20260509142358 | 75 | 215 | 3.5 | 6.1 | 0.00 | 0.00 | 0.00 | 90 | 1008.3 |
| 20260509141857 | 75 | 218 | 3.5 | 6.1 | 0.00 | 0.00 | 0.00 | 90 | 1008.3 |
| 20260509141610 | 75 | 223 | 2.6 | 7.0 | 0.00 | 0.00 | 0.00 | 90 | 1007.8 |
| 20260509140833 | 75 | 238 | 4.3 | 7.0 | 0.00 | 0.00 | 0.00 | 90 | 1007.8 |
| 20260509140322 | 75 | 243 | 4.3 | 7.8 | 0.00 | 0.00 | 0.00 | 90 | 1007.8 |
| 20260509135817 | 75 | 249 | 2.6 | 7.8 | 0.00 | 0.00 | 0.00 | 90 | 1007.9 |
| 20260509135311 | 74 | 263 | 1.7 | 5.2 | 0.00 | 0.00 | 0.00 | 90 | 1007.9 |
| 20260509134802 | 74 | 351 | 3.5 | 6.1 | 0.00 | 0.00 | 0.00 | 90 | 1007.9 |
| 20260509134518 | 74 | 0 | 4.3 | 7.8 | 0.00 | 0.00 | 0.00 | 90 | 1008.1 |
| 20260509133740 | 74 | 354 | 5.2 | 11.3 | 0.00 | 0.00 | 0.00 | 90 | 1008.1 |
| 20260509133231 | 74 | 11 | 7.0 | 11.3 | 0.00 | 0.00 | 0.00 | 90 | 1008.1 |
| 20260509132732 | 74 | 343 | 7.8 | 11.3 | 0.00 | 0.00 | 0.00 | 90 | 1008.2 |
| 20260509132450 | 74 | 342 | 7.8 | 11.3 | 0.00 | 0.00 | 0.00 | 90 | 1008.2 |
| 20260509131957 | 74 | 342 | 7.0 | 18.2 | 0.00 | 0.00 | 0.00 | 90 | 1008.2 |
| 20260509131232 | 74 | 340 | 8.7 | 18.2 | 0.00 | 0.00 | 0.00 | 90 | 1007.7 |
| 20260509130955 | 74 | 1 | 9.6 | 18.2 | 0.00 | 0.00 | 0.00 | 91 | 1007.7 |
| 20260509130229 | 74 | 347 | 7.0 | 18.2 | 0.00 | 0.00 | 0.00 | 90 | 1007.7 |
| 20260509125730 | 74 | 330 | 7.8 | 16.5 | 0.00 | 0.00 | 0.00 | 91 | 1007.6 |
| 20260509125229 | 74 | 338 | 7.8 | 21.7 | 0.00 | 0.00 | 0.00 | 91 | 1007.6 |
| 20260509124728 | 74 | 332 | 9.6 | 21.7 | 0.00 | 0.00 | 0.00 | 90 | 1007.6 |
| 20260509124228 | 74 | 95 | 15.6 | 21.7 | 0.00 | 0.00 | 0.00 | 91 | 1006.6 |
| 20260509123941 | 74 | 116 | 16.5 | 23.5 | 0.00 | 0.00 | 0.00 | 90 | 1006.6 |
| 20260509123217 | 75 | 109 | 17.4 | 23.5 | 0.00 | 0.00 | 0.00 | 91 | 1006.6 |
| 20260509122718 | 75 | 90 | 16.5 | 23.5 | 0.00 | 0.00 | 0.00 | 91 | 1007.2 |
| 20260509122436 | 75 | 105 | 13.0 | 20.9 | 0.00 | 0.00 | 0.00 | 90 | 1007.2 |
| 20260509121938 | 75 | 70 | 10.4 | 17.4 | 0.00 | 0.00 | 0.00 | 90 | 1007.2 |
| 20260509121218 | 75 | 104 | 8.7 | 13.9 | 0.00 | 0.00 | 0.00 | 90 | 1008.2 |
| 20260509120717 | 75 | 125 | 7.0 | 13.0 | 0.00 | 0.00 | 0.00 | 90 | 1008.2 |
| 20260509120441 | 75 | 85 | 5.2 | 13.0 | 0.00 | 0.00 | 0.00 | 90 | 1008.2 |
| 20260509115937 | 75 | 67 | 6.1 | 13.0 | 0.00 | 0.00 | 0.00 | 90 | 1008.4 |
| 20260509115210 | 75 | 118 | 7.8 | 13.9 | 0.00 | 0.00 | 0.00 | 90 | 1008.4 |
| 20260509114709 | 75 | 149 | 7.0 | 13.9 | 0.00 | 0.00 | 0.00 | 90 | 1008.4 |
| 20260509114426 | 75 | 203 | 6.1 | 12.2 | 0.00 | 0.00 | 0.00 | 90 | 1008.7 |
| 20260509113710 | 75 | 209 | 7.0 | 13.0 | 0.00 | 0.00 | 0.00 | 90 | 1008.7 |
| 20260509113430 | 75 | 90 | 6.1 | 13.0 | 0.00 | 0.00 | 0.00 | 90 | 1008.7 |
| 20260509112708 | 75 | 176 | 4.3 | 9.6 | 0.00 | 0.00 | 0.00 | 90 | 1008.6 |
| 20260509112208 | 75 | 179 | 3.5 | 7.8 | 0.00 | 0.00 | 0.00 | 90 | 1008.6 |
| 20260509111708 | 75 | 132 | 2.6 | 7.8 | 0.00 | 0.00 | 0.00 | 90 | 1008.6 |
| 20260509111210 | 75 | 131 | 4.3 | 7.8 | 0.00 | 0.00 | 0.00 | 90 | 1008.2 |
| 20260509110708 | 75 | 153 | 5.2 | 7.8 | 0.00 | 0.00 | 0.00 | 90 | 1008.2 |
| 20260509110210 | 75 | 168 | 4.3 | 7.0 | 0.00 | 0.00 | 0.00 | 90 | 1008.2 |
| 20260509105920 | 75 | 161 | 2.6 | 6.1 | 0.00 | 0.00 | 0.00 | 90 | 1008.2 |
| 20260509105200 | 74 | 155 | 0.9 | 6.1 | 0.00 | 0.00 | 0.00 | 90 | 1008.2 |
| 20260509104925 | 74 | 122 | 0.0 | 0.0 | 0.00 | 0.00 | 0.00 | 90 | 1008.2 |
| 20260509104418 | 74 | 116 | 0.0 | 0.0 | 0.00 | 0.00 | 0.00 | 90 | 1008.0 |
| 20260509103657 | 75 | 116 | 0.9 | 1.7 | 0.00 | 0.00 | 0.00 | 90 | 1008.0 |
| 20260509103155 | 75 | 116 | 0.9 | 1.7 | 0.00 | 0.00 | 0.00 | 90 | 1008.0 |
| 20260509102652 | 75 | 116 | 0.0 | 1.7 | 0.00 | 0.00 | 0.00 | 90 | 1007.8 |
| 20260509102151 | 75 | 116 | 0.0 | 2.6 | 0.00 | 0.00 | 0.00 | 90 | 1007.8 |
| 20260509101649 | 75 | 116 | 1.7 | 3.5 | 0.00 | 0.00 | 0.00 | 90 | 1007.8 |
| 20260509101147 | 75 | 116 | 2.6 | 3.5 | 0.00 | 0.00 | 0.00 | 90 | 1007.7 |
| 20260509100645 | 75 | 112 | 0.9 | 3.5 | 0.00 | 0.00 | 0.00 | 90 | 1007.7 |
| 20260509100144 | 75 | 101 | 0.0 | 1.7 | 0.00 | 0.00 | 0.00 | 90 | 1007.7 |
| 20260509095637 | 75 | 101 | 0.9 | 2.6 | 0.00 | 0.00 | 0.00 | 90 | 1007.8 |
| 20260509095128 | 75 | 101 | 0.9 | 2.6 | 0.00 | 0.00 | 0.00 | 90 | 1007.8 |